{"data":{"norad_id":59553,"epoch":"2026-09-21T10:48:40.404096Z","epoch_age_seconds":86150,"freshness":"FRESH","line1":"1 59553U 24074V   26264.45046764 -.00000511  00000+0 -90354-5 0  9994","line2":"2 59553  43.0027 317.9486 0001123 279.7592  80.3133 15.27572544135954","mean_motion":15.27572544,"eccentricity":0.0001123,"inclination_deg":43.0027,"raan_deg":317.9486,"arg_perigee_deg":279.7592,"mean_anomaly_deg":80.3133,"bstar":-9.0354e-6,"rev_number":13595,"period_min":94.267208824617,"perigee_km":482.30090837095,"apogee_km":483.84193578255,"semimajor_km":6861.2084220767,"source":"CELESTRAK","updated_at":"2026-09-22T09:00:48.975537Z"}}